ONEWEB-0053, 45157

Orbit data source: Space-Track

ONEWEB-0053, 45157 is a payload satellite owned by One Web (UK) in LEO that was launched on Thu, 06 Feb 2020 UTC via a SOYUZ-2-1B launch vehicle from the Tyuratam Missile And Space Complex (TTMTR). Payload-class satellites include a variety of spacecraft equipped with specific instruments for various scientific and technological missions. These include communications satellites like Starlink; space stations such as the ISS; scientific satellites like the Hubble; Earth observation satellites from companies like Planet Labs, Umbra, and HawkEye 360; GPS; miniature CubeSats for education and research; and military/defense satellites.

Loading next visibility...
Identifier
45157, 2020-008AC
Orbit
LEO
Country
Flag of UKUK
Related business
Manufacturer
One Web
Mission
Operational Commercial Communications
Bus & Motor
ARROW, Unknown motor
Mass
148 kg wet, ~140 kg dry
Launch date (UTC)
2020-02-06 (6 years ago)
Launch vehicle
SOYUZ-2-1B
Launch site
Tyuratam Missile And Space Complex (TTMTR)
Object type
Payload
Rocket body
Debris
Shape & HBR
Trap Box + 2 Pan, 6.7 m
Radar Cross Section
3.464 m², Large (>1 m²)

Expand to show TLE details & history
Last TLE update: 1 day ago

TLE from 1 day ago
0 ONEWEB-0053
1 45157U 20008AC  25301.45557808  .00000562  00000-0  15728-2 0  9993
2 45157  87.8772  82.4862 0001388 106.4978 253.6302 13.10374490277568
Epoch: 2025-10-28T10:56Z
TLE epoch observation values (Epoch: 2025-10-28T10:56:01.946Z)
Latitude
0.00001°
Longitude
-118.56473°
Altitude
1,224.896 km
Speed
7.242 km/s
True Right ascension
05h 29m 56s
True Declination
0° 00' 00"
Sunlit
Object was in full shadow at epoch
Visualization orbit readout
Latitude
Unknown
Longitude
Unknown
Altitude
Unknown
Speed
Unknown
Apparent Right ascension
Unknown
Apparent Declination
Unknown
Sunlit
N/A
Visualization observer readout
Local Sidereal Time
09:56:20
Azimuth
Unknown
Elevation
Unknown
Doppler factor
Unknown
Orbital elements
Apogee altitude
1,219.885 km
Perigee altitude
1,217.776 km
Semi-major axis
7,596.968 km
Eccentricity
0.00014
Inclination
87.8772°
RAAN
82.4862°
Arg. of periapsis
106.4978°
True anomaly
253.61494°
Mean anomaly
253.6302°
Eccentric anomaly
253.62257°
Mean motion
3.2778 °/min
Orbital period
109.83 mins
BSTAR
0.0015728
Loading maneuver chart data...
Computing Atmospheric mass density...
Loading historical data...
Loading historical data...
Loading historical data...
Loading historical data...
Loading historical data...
Loading historical data...
Loading historical data...

Documentation

Showing up to 5 results
|